Home   Weather   Borough of Fairfield   Past weeks
Flag for USA

Past Weather in Borough of Fairfield, Pennsylvania, USA — Yesterday and Last 2 Weeks

Now
53 °F

Overcast.


Feels Like: 52 °F
Forecast: 68 / 43 °F
Wind: 5 mph from Southwest

Location: Washington County Regional Airport

Current Time: Apr 5, 2020 at 10:49:46 am

Latest Report: Apr 5, 2020 at 9:53 am


Visibility: 10 mi

Pressure: 30.11 "Hg

Humidity: 74%

Dew Point: 45 °F

Location of Borough of FairfieldLocation

Past Weather in Borough of Fairfield — Graph

°F

Borough of Fairfield Temperature Yesterday

Maximum temperature yesterday: 58 °F (at 3:53 pm)
Minimum temperature yesterday: 47 °F (at 2:53 am)
Average temperature yesterday: 52 °F

High & Low Weather Summary for the Past Weeks

 TemperatureHumidityPressure
High68 °F (Mar 30, 12:53 pm)100% (Mar 29, 2:53 am)30.63 "Hg (Mar 29, 2:53 am)
Low32 °F (Mar 22, 6:53 am)26% (Mar 30, 11:53 am)29.75 "Hg (Mar 29, 4:07 pm)
Average49 °F72%30.04 "Hg
* Reported Mar 21 8:53 am — Apr 5 8:53 am, Borough of Fairfield. Weather by CustomWeather, © 2020

Note: Actual official high and low records may vary slightly from our data, if they occured in-between our weather recording intervals... More about our weather records

Borough of Fairfield Weather History for the Previous 24 Hours

Scroll right to see more
 ConditionsComfort  
Time TempWeatherWind HumidityBarometerVisibility
8:53 am
Sun, Apr 5
50 °FPartly sunny.5 mph80%30.10 "Hg10 mi
7:53 am46 °FSunny.3 mph86%30.10 "Hg10 mi
6:53 am45 °FSunny.3 mph82%30.08 "Hg10 mi
5:53 am46 °FClear.No wind86%30.07 "Hg10 mi
4:53 am47 °FClear.No wind83%30.06 "Hg10 mi
3:53 am47 °FClear.5 mph83%30.06 "Hg10 mi
2:53 am49 °FClear.5 mph77%30.07 "Hg10 mi
1:53 am50 °FClear.3 mph71%30.07 "Hg10 mi
12:53 am52 °FClear.No wind69%30.08 "Hg10 mi
11:53 pm
Sat, Apr 4
52 °FPassing clouds.No wind72%30.07 "Hg10 mi
10:53 pm54 °FOvercast.3 mph67%30.07 "Hg10 mi
9:53 pm56 °FOvercast.5 mph62%30.07 "Hg10 mi
8:53 pm57 °FOvercast.No wind60%30.06 "Hg10 mi
7:53 pm57 °FOvercast.3 mph58%30.03 "Hg10 mi
6:53 pm57 °FOvercast.3 mph58%30.03 "Hg10 mi
5:53 pm58 °FOvercast.3 mph56%30.02 "Hg10 mi
4:53 pm58 °FOvercast.5 mph56%30.02 "Hg10 mi
3:53 pm58 °FOvercast.3 mph56%30.02 "Hg10 mi
1:53 pm56 °FOvercast.3 mph60%30.05 "Hg10 mi
12:53 pm56 °FOvercast.6 mph60%30.05 "Hg10 mi
12:41 pm56 °FOvercast.5 mph60%30.02 "Hg10 mi
12:10 pm56 °FPartly sunny.7 mph62%30.02 "Hg10 mi
11:53 am53 °FBroken clouds.N/A64%30.06 "Hg10 mi
11:44 am54 °FMostly cloudy.6 mph67%30.03 "Hg10 mi
10:53 am53 °FOvercast.6 mph69%30.07 "Hg10 mi
10:11 am51 °FOvercast.8 mph69%30.04 "Hg10 mi
10:00 am50 °FOvercast.7 mph71%30.04 "Hg10 mi
Weather by CustomWeather, © 2020

See weather overview

Advertising